Tracking 19795 objects as of 20-Jul-2019
HD Live streaming from Space Station
objects crossing your sky now

FENGYUN 1C DEB


FENGYUN 1C DEB is no longer on orbit


NORAD ID: 32424
Int'l Code: 1999-025DAL
Perigee: N/A
Apogee: N/A
Inclination: N/A
Period: N/A
Semi major axis: N/A
RCS: N/A
Launch date: May 10, 1999
Source: People's Republic of China (PRC)
Launch site: Taiyaun Space Center, China (TSC)
Decay date: 2016-02-27

Note: This is SATELLITE DEBRIS
aabbcc
Your satellite tracking list
Your tracking list is empty




NASA's NSSDC Master Catalog

Two Line Element Set (TLE):
1 32424U 99025DAL 14304.57200352  .00055947  00000-0  96646-2 0  9999
2 32424  98.8402  64.6213 0079592 220.9746 198.2082 14.66059410380548
Source of the keplerian elements: AFSPC